076  
ASUS42 KCAE 310810  
RWRCAE  
SOUTH CAROLINA REGIONAL WEATHER ROUNDUP  
NATIONAL WEATHER SERVICE COLUMBIA SC  
400 AM EDT SUN MAY 31 2020  
 
NOTE: "FAIR" INDICATES FEW OR NO CLOUDS BELOW 12,000 FEET WITH NO  
SIGNIFICANT WEATHER AND/OR S TO VISIBILITY
.  
 
SCZ003-006-007-009-010-310900-  
UPSTATE  
 
CITY SKY/WX TMP DP RH WIND PRES REMARKS
 
ANDERSON CLEAR 67 58 72 CALM 30.00F  
CLEMSON PTCLDY 65 58 78 NW3 30.03S  
GREENVILLE MOCLDY 72 56 57 NE7 30.03S  
GREENWOOD CLEAR 65 61 87 CALM 30.01S  
GREER PTCLDY 65 55 70 N6 30.02F  
ROCK HILL MOCLDY 71 56 58 NE6 30.02F  

 
 
SCZ027-028-031-032-036-310900-  
CENTRAL  
 
CITY SKY/WX TMP DP RH WIND PRES REMARKS
 
COLUMBIA APT CLEAR 69 66 90 CALM 29.97R  
COLUMBIA OWENS CLEAR 71 69 93 CALM 29.98R  
MCENTIRE ANGB CLEAR 67 67 100 CALM 29.97S  
ORANGEBURG CLEAR 71 68 90 CALM 29.97S FOG  
SUMTER SHAW CLEAR 70 68 93 CALM 29.96  

 
 
SCZ034-044-045-048-050-310900-  
COAST  
 
CITY SKY/WX TMP DP RH WIND PRES REMARKS
 
CHARLESTON APT PTCLDY 73 71 93 N6 29.95F  
BEAUFORT CLEAR 74 70 87 CALM 29.96  

 
 
 
CLICK HERE TO GO TO PREVIOUS BULLETINS.

The Nexlab SC Page
The Nexlab GA Page Main Text Page